FRIDAY HARBOR, WA current weather conditions

sailwx.info

Wind from 310 at 3 knots

Air temperature 2.0° C
Visibility: greater than 8.7 NM
Dewpoint 2.0° C

Last reported at 2019-Dec-15 12:05 UTC.
Time now 2019-Dec-15 13:23 UTC

Location: N 48°31' W 123°01'.
View on Google Maps.

See reports from other nearby stations

  
Tides and Currents Weather Stations Pressure Air Temp Water Temp Dewpoint Dewpoint Depression Visibility Wind Speed Wind Dir Waves Ship Positions
date/time (UTC)wind fromknots sea level pressurealtimeterstation pressurevisibilityair tempwater tempwave heightnotes
2019-Dec-15 13:00 8.7 2.0
2019-Dec-15 12:55 300 3 8.7 2.0
2019-Dec-15 12:53 300 2 8.7 1.7
2019-Dec-15 12:45 8.7 2.0
2019-Dec-15 12:35 290 3 8.7 2.0
2019-Dec-15 12:30 300 3 8.7 2.0
2019-Dec-15 12:25 290 3 8.7 2.0
2019-Dec-15 12:20 320 3 8.7 2.0
2019-Dec-15 12:15 290 3 8.7 2.0
2019-Dec-15 12:05 310 3 8.7 2.0
2019-Dec-15 12:00 300 3 8.7 2.0
2019-Dec-15 11:55 300 3 8.7 3.0
2019-Dec-15 11:53 300 2 8.7 2.8
2019-Dec-15 11:50 300 3 8.7 3.0
2019-Dec-15 11:45 300 3 8.7 3.0
2019-Dec-15 11:40 8.7 3.0
2019-Dec-15 11:30 8.7 3.0
2019-Dec-15 11:25 8.7 3.0
2019-Dec-15 11:20 280 3 8.7 3.0
2019-Dec-15 11:15 270 3 8.7 3.0
2019-Dec-15 11:05 270 3 8.7 3.0
2019-Dec-15 11:00 280 3 8.7 3.0
2019-Dec-15 10:55 270 3 8.7 3.0
2019-Dec-15 10:53 8.7 2.8
2019-Dec-15 10:50 8.7 3.0
2019-Dec-15 10:45 8.7 3.0
2019-Dec-15 10:40 8.7 3.0
2019-Dec-15 10:35 8.7 3.0
2019-Dec-15 10:30 8.7 3.0
2019-Dec-15 10:20 8.7 3.0
2019-Dec-15 10:15 8.7 3.0
2019-Dec-15 10:10 290 3 8.7 3.0
2019-Dec-15 10:05 7.8 3.0
2019-Dec-15 10:00 7.8 3.0
2019-Dec-15 09:55 7.8 3.0
2019-Dec-15 09:53 7.8 2.8
2019-Dec-15 09:50 290 3 5.2 3.0 Mist.
2019-Dec-15 09:45 270 3 3.5 3.0 Mist.
2019-Dec-15 09:40 4.3 3.0 Mist.
2019-Dec-15 09:35 7.8 3.0
2019-Dec-15 09:25 7.0 3.0
2019-Dec-15 09:10 300 3 8.7 3.0
2019-Dec-15 09:05 300 3 8.7 3.0
2019-Dec-15 09:00 300 3 8.7 3.0
2019-Dec-15 08:55 300 3 8.7 4.0
2019-Dec-15 08:53 8.7 3.9
2019-Dec-15 08:50 320 3 8.7 4.0
2019-Dec-15 08:45 310 3 8.7 4.0
2019-Dec-15 08:35 330 4 8.7 3.0
2019-Dec-15 08:30 310 3 8.7 3.0
2019-Dec-15 08:25 290 3 8.7 3.0
2019-Dec-15 08:20 8.7 3.0
2019-Dec-15 08:10 8.7 3.0
2019-Dec-15 08:05 8.7 3.0
2019-Dec-15 08:00 8.7 3.0
2019-Dec-15 07:55 8.7 3.0
2019-Dec-15 07:53 8.7 3.3
2019-Dec-15 07:50 8.7 3.0
2019-Dec-15 07:45 8.7 3.0
2019-Dec-15 07:35 270 3 8.7 4.0
2019-Dec-15 07:30 280 3 8.7 4.0
2019-Dec-15 07:25 290 3 8.7 3.0
2019-Dec-15 07:20 280 3 8.7 3.0
2019-Dec-15 07:05 290 3 8.7 3.0
2019-Dec-15 07:00 290 3 8.7 3.0
2019-Dec-15 06:55 290 3 8.7 3.0
2019-Dec-15 06:53 8.7 3.3
2019-Dec-15 06:50 280 3 8.7 3.0
2019-Dec-15 06:45 290 3 8.7 3.0
2019-Dec-15 06:40 290 3 8.7 3.0
2019-Dec-15 06:35 290 3 8.7 3.0
2019-Dec-15 06:30 290 3 8.7 3.0
2019-Dec-15 06:25 290 3 8.7 3.0
2019-Dec-15 06:20 290 3 8.7 3.0
2019-Dec-15 06:05 8.7 3.0
2019-Dec-15 06:00 7.8 4.0
2019-Dec-15 05:53 8.7 3.9
2019-Dec-15 05:50 8.7 4.0
2019-Dec-15 05:45 8.7 4.0
2019-Dec-15 05:40 8.7 4.0
2019-Dec-15 05:35 8.7 4.0
2019-Dec-15 05:30 8.7 4.0
2019-Dec-15 05:25 280 3 8.7 4.0
2019-Dec-15 05:20 260 3 8.7 4.0
2019-Dec-15 05:05 8.7 4.0
2019-Dec-15 04:55 8.7 4.0
2019-Dec-15 04:53 8.7 3.9 Light rain.
2019-Dec-15 04:45 7.0 4.0 Light rain.
2019-Dec-15 04:40 4.3 4.0 Light rain. Mist.
2019-Dec-15 04:30 320 3 2.6 4.0 Rain. Mist.
2019-Dec-15 04:15 310 4 6.1 4.0 Light rain.
2019-Dec-15 04:10 330 4 8.7 4.0 Light rain.
2019-Dec-15 04:05 300 3 8.7 4.0
2019-Dec-15 04:00 290 4 8.7 5.0 Light rain.
2019-Dec-15 03:55 300 3 8.7 4.0
2019-Dec-15 03:53 290 2 8.7 4.4
2019-Dec-15 03:45 8.7 4.0 Light rain.
2019-Dec-15 03:40 8.7 4.0 Light rain.
2019-Dec-15 03:37 8.7 4.4
2019-Dec-15 03:35 8.7 4.0
2019-Dec-15 03:30 8.7 4.0
2019-Dec-15 03:25 8.7 4.0
2019-Dec-15 03:20 8.7 4.0
2019-Dec-15 03:15 8.7 4.0
2019-Dec-15 03:10 8.7 4.0
2019-Dec-15 03:05 8.7 4.0
2019-Dec-15 02:55 8.7 4.0
2019-Dec-15 02:53 8.7 3.9
2019-Dec-15 02:50 8.7 4.0
2019-Dec-15 02:45 8.7 4.0
2019-Dec-15 02:40 8.7 4.0
2019-Dec-15 02:35 340 3 8.7 4.0
2019-Dec-15 02:30 8.7 3.0
2019-Dec-15 02:20 8.7 3.0
2019-Dec-15 02:15 8.7 4.0
2019-Dec-15 02:10 8.7 4.0
2019-Dec-15 02:05 8.7 4.0
2019-Dec-15 02:00 8.7 4.0
2019-Dec-15 01:55 8.7 4.0
2019-Dec-15 01:53 8.7 3.9
2019-Dec-15 01:50 8.7 4.0
2019-Dec-15 01:45 8.7 4.0
2019-Dec-15 01:40 8.7 4.0
2019-Dec-15 01:35 8.7 5.0
2019-Dec-15 01:30 8.7 4.0
2019-Dec-15 01:25 8.7 4.0
2019-Dec-15 01:20 8.7 4.0
2019-Dec-15 01:15 8.7 4.0
2019-Dec-15 01:10 8.7 4.0
2019-Dec-15 01:00 8.7 5.0
2019-Dec-15 00:53 8.7 5.0
2019-Dec-15 00:45 8.7 5.0
2019-Dec-15 00:30 8.7 5.0
2019-Dec-15 00:05 8.7 6.0
2019-Dec-15 00:00 8.7 6.0
2019-Dec-14 23:55 8.7 6.0
2019-Dec-14 23:53 8.7 5.6
2019-Dec-14 23:45 8.7 6.0
2019-Dec-14 23:40 8.7 6.0
2019-Dec-14 23:35 8.7 6.0
2019-Dec-14 23:30 8.7 6.0
2019-Dec-14 23:25 8.7 7.0
2019-Dec-14 23:15 8.7 7.0
2019-Dec-14 23:10 8.7 7.0
2019-Dec-14 23:05 8.7 7.0
2019-Dec-14 23:00 8.7 7.0
2019-Dec-14 22:55 8.7 7.0
2019-Dec-14 22:53 8.7 6.7
2019-Dec-14 22:50 8.7 7.0
2019-Dec-14 22:45 8.7 7.0
2019-Dec-14 22:40 8.7 7.0
2019-Dec-14 22:35 8.7 7.0
2019-Dec-14 22:30 8.7 7.0
2019-Dec-14 22:25 8.7 7.0
2019-Dec-14 22:20 8.7 7.0
2019-Dec-14 22:15 8.7 7.0
2019-Dec-14 22:00 8.7 7.0
2019-Dec-14 21:55 8.7 7.0
2019-Dec-14 21:53 050 2 8.7 6.7
2019-Dec-14 21:45 8.7 7.0
2019-Dec-14 21:35 8.7 7.0
2019-Dec-14 21:30 8.7 7.0
2019-Dec-14 21:20 8.7 7.0
2019-Dec-14 21:15 040 3 8.7 7.0
2019-Dec-14 21:12 040 2 8.7 6.7
2019-Dec-14 21:10 050 3 8.7 7.0
2019-Dec-14 21:05 050 3 8.7 7.0
2019-Dec-14 21:02 050 4 8.7 6.7
2019-Dec-14 21:00 050 3 8.7 7.0
2019-Dec-14 20:53 080 2 8.7 7.2
2019-Dec-14 20:50 080 3 8.7 7.0
2019-Dec-14 20:40 8.7 7.0
2019-Dec-14 20:35 8.7 7.0
2019-Dec-14 20:30 8.7 7.0
2019-Dec-14 20:25 8.7 7.0
2019-Dec-14 20:20 8.7 7.0
2019-Dec-14 20:10 8.7 6.0
2019-Dec-14 20:05 8.7 7.0
2019-Dec-14 20:00 8.7 7.0 Light rain.
2019-Dec-14 19:55 080 3 7.0 7.0 Light rain.
2019-Dec-14 19:53 100 2 6.9 6.7 Light rain.
2019-Dec-14 19:40 050 3 4.3 6.0 Light rain. Mist.
2019-Dec-14 19:35 060 3 5.2 6.0 Light rain. Mist.
2019-Dec-14 19:25 7.8 6.0 Light rain.
2019-Dec-14 19:15 8.7 6.0
2019-Dec-14 19:12 8.7 6.1
2019-Dec-14 19:10 8.7 6.0
2019-Dec-14 19:05 8.7 6.0
2019-Dec-14 19:03 8.7 6.1
2019-Dec-14 19:00 8.7 6.0
2019-Dec-14 18:55 8.7 6.0
2019-Dec-14 18:53 8.7 6.1
2019-Dec-14 18:50 8.7 6.0
2019-Dec-14 18:45 8.7 6.1
2019-Dec-14 18:40 8.7 6.0
2019-Dec-14 18:35 8.7 6.0
2019-Dec-14 18:30 8.7 6.0
2019-Dec-14 18:23 100 2 8.7 6.1
2019-Dec-14 18:20 8.7 6.0
2019-Dec-14 18:15 8.7 6.0
2019-Dec-14 18:10 8.7 6.0
2019-Dec-14 18:06 8.7 5.6
2019-Dec-14 18:05 8.7 6.0
2019-Dec-14 18:00 8.7 6.0
2019-Dec-14 17:53 8.7 5.6
2019-Dec-14 17:50 8.7 6.0
2019-Dec-14 17:45 8.7 6.0 Light rain.
2019-Dec-14 17:30 8.7 6.0 Light rain.
2019-Dec-14 17:25 8.7 6.0 Light rain.
2019-Dec-14 17:20 8.7 5.0 Light rain.
2019-Dec-14 17:10 8.7 5.0 Light rain.
2019-Dec-14 17:00 8.7 5.0 Light rain.
2019-Dec-14 16:55 5.2 5.0 Light rain. Mist.
2019-Dec-14 16:53 4.3 5.0 Light rain. Mist.
2019-Dec-14 16:50 300 3 3.5 5.0 Light rain. Mist.
2019-Dec-14 16:40 1.7 5.0 Light rain. Mist.
2019-Dec-14 16:35 1.7 6.0 Rain. Mist.
2019-Dec-14 16:32 1.7 5.6 Rain. Mist.
2019-Dec-14 16:30 2.2 6.0 Rain. Mist.
2019-Dec-14 16:25 320 3 2.6 5.0 Rain. Mist.
2019-Dec-14 16:10 290 4 7.8 5.0 Light rain.
2019-Dec-14 16:05 290 3 7.8 5.0
2019-Dec-14 15:53 6.1 5.0
2019-Dec-14 15:50 5.2 5.0 Mist.
2019-Dec-14 15:45 5.2 5.0 Mist.
2019-Dec-14 15:35 5.2 5.0 Mist.
2019-Dec-14 15:30 6.1 5.0
2019-Dec-14 15:25 7.0 5.0
2019-Dec-14 15:20 7.0 5.0
2019-Dec-14 15:10 7.8 5.0
2019-Dec-14 15:00 7.0 5.0
2019-Dec-14 14:55 7.0 5.0
2019-Dec-14 14:53 7.8 5.0
2019-Dec-14 14:50 7.8 5.0 Light rain.
2019-Dec-14 14:45 7.0 5.0 Light rain.
2019-Dec-14 14:40 7.0 6.0
2019-Dec-14 14:35 6.1 5.0 Light rain.
2019-Dec-14 14:30 3.5 5.0 Light rain. Mist.
2019-Dec-14 14:25 3.5 6.0 Light rain. Mist.
2019-Dec-14 14:21 3.5 5.0 Light rain. Mist.
2019-Dec-14 14:20 3.5 5.0 Light rain. Mist.
2019-Dec-14 14:15 4.3 5.0 Light rain. Mist.
2019-Dec-14 14:05 5.2 5.0 Light rain. Mist.
2019-Dec-14 14:02 5.2 5.0 Light rain. Mist.
2019-Dec-14 13:55 4.3 5.0 Light rain. Mist.
2019-Dec-14 13:53 3.5 5.0 Light rain. Mist.
2019-Dec-14 13:51 3.5 5.0 Light rain. Mist.
2019-Dec-14 13:50 3.0 5.0 Light rain. Mist.
2019-Dec-14 13:45 3.0 5.0 Rain. Mist.
2019-Dec-14 13:35 5.2 5.0 Light rain. Mist.
2019-Dec-14 13:30 4.3 5.0 Light rain. Mist.
2019-Dec-14 13:20 5.2 5.0 Light rain. Mist.
2019-Dec-14 13:15 5.2 5.0 Light rain. Mist.
2019-Dec-14 13:10 6.1 5.0 Light rain.
2019-Dec-14 13:05 7.0 5.0 Light rain.
2019-Dec-14 13:02 6.9 5.0 Light rain.
2019-Dec-14 13:00 7.8 5.0 Light rain.
2019-Dec-14 12:55 7.8 4.0
2019-Dec-14 12:53 7.8 4.4
2019-Dec-14 12:50 7.8 4.0 Light rain.
2019-Dec-14 12:40 7.8 5.0 Light rain.
2019-Dec-14 12:35 8.7 5.0 Light rain.
2019-Dec-14 12:30 8.7 4.0 Light rain.
2019-Dec-14 12:25 5.2 4.0 Light rain. Mist.
2019-Dec-14 12:20 4.3 4.0 Light rain. Mist.
2019-Dec-14 12:15 6.1 5.0 Light rain.
2019-Dec-14 12:10 6.1 4.0 Light rain.
2019-Dec-14 12:05 7.0 4.0 Light rain.
2019-Dec-14 12:00 8.7 4.0
2019-Dec-14 11:55 8.7 4.0
2019-Dec-14 11:53 8.7 3.9
2019-Dec-14 11:50 8.7 4.0
2019-Dec-14 11:45 8.7 4.0
2019-Dec-14 11:35 7.0 4.0
2019-Dec-14 11:30 7.0 4.0
2019-Dec-14 11:25 8.7 4.0
2019-Dec-14 11:20 8.7 4.0
2019-Dec-14 11:15 8.7 4.0
2019-Dec-14 11:05 8.7 4.0
2019-Dec-14 11:00 8.7 4.0
2019-Dec-14 10:55 010 3 8.7 5.0
2019-Dec-14 10:53 8.7 5.0
2019-Dec-14 10:45 8.7 4.0
2019-Dec-14 10:40 8.7 4.0
2019-Dec-14 10:35 8.7 5.0
2019-Dec-14 10:30 350 3 8.7 4.0
2019-Dec-14 10:25 8.7 4.0
2019-Dec-14 10:15 8.7 4.0
2019-Dec-14 10:10 7.0 4.0
2019-Dec-14 10:05 7.0 4.0
2019-Dec-14 10:00 7.8 4.0
2019-Dec-14 09:55 8.7 4.0
2019-Dec-14 09:53 8.7 4.4
2019-Dec-14 09:50 8.7 4.0
2019-Dec-14 09:40 8.7 4.0
2019-Dec-14 09:35 8.7 4.0
2019-Dec-14 09:30 8.7 4.0
2019-Dec-14 09:20 8.7 4.0
2019-Dec-14 09:05 8.7 4.0
2019-Dec-14 09:00 8.7 4.0
2019-Dec-14 08:53 7.8 3.9
2019-Dec-14 08:45 7.8 4.0
2019-Dec-14 08:40 8.7 4.0
2019-Dec-14 08:30 6.1 4.0
2019-Dec-14 08:25 280 3 8.7 5.0
2019-Dec-14 08:20 280 3 8.7 5.0
2019-Dec-14 07:55 270 3 8.7 6.0
2019-Dec-14 07:53 270 2 8.7 5.6
2019-Dec-14 07:40 270 3 7.8 4.0
2019-Dec-14 07:30 6.1 4.0
2019-Dec-14 07:25 7.8 4.0
2019-Dec-14 07:20 8.7 4.0
2019-Dec-14 07:15 7.8 4.0
2019-Dec-14 07:10 8.7 4.0
2019-Dec-14 07:05 8.7 4.0
2019-Dec-14 07:00 7.8 5.0 Light rain.
2019-Dec-14 06:55 7.0 4.0 Light rain.
2019-Dec-14 06:53 6.9 4.4 Light rain.
2019-Dec-14 06:50 7.8 4.0
2019-Dec-14 06:45 8.7 5.0
2019-Dec-14 06:35 8.7 5.0
2019-Dec-14 06:30 7.8 5.0
2019-Dec-14 06:25 6.1 4.0
2019-Dec-14 06:20 6.1 5.0
2019-Dec-14 06:15 4.3 5.0 Mist.
2019-Dec-14 06:05 6.1 4.0
2019-Dec-14 06:00 7.8 5.0
2019-Dec-14 05:55 8.7 5.0
2019-Dec-14 05:53 8.7 5.0
2019-Dec-14 05:50 8.7 5.0
2019-Dec-14 05:45 7.0 5.0
2019-Dec-14 05:40 7.0 4.0
2019-Dec-14 05:35 8.7 5.0
2019-Dec-14 05:30 8.7 5.0
2019-Dec-14 05:25 6.1 4.0
2019-Dec-14 05:15 8.7 4.0
2019-Dec-14 05:10 8.7 4.0
2019-Dec-14 04:53 7.8 4.4
2019-Dec-14 04:50 7.8 4.0
2019-Dec-14 04:45 3.5 4.0 Mist.
2019-Dec-14 04:40 3.0 4.0 Mist.
2019-Dec-14 04:30 4.3 4.0 Mist.
2019-Dec-14 04:25 4.3 4.0 Mist.
2019-Dec-14 04:20 7.0 4.0
2019-Dec-14 04:19 7.8 4.4
2019-Dec-14 04:15 5.2 4.0 Mist.
2019-Dec-14 04:11 2.2 3.9 Mist.
2019-Dec-14 04:10 1.7 4.0 Mist.
2019-Dec-14 04:05 2.2 4.0 Mist.
2019-Dec-14 03:55 8.7 4.0
2019-Dec-14 03:53 8.7 3.9
2019-Dec-14 03:50 8.7 4.0
2019-Dec-14 03:45 260 3 8.7 4.0
2019-Dec-14 03:40 260 3 8.7 4.0
2019-Dec-14 03:35 8.7 3.0
2019-Dec-14 03:30 250 3 8.7 3.0
2019-Dec-14 03:25 270 3 8.7 3.0
2019-Dec-14 03:20 8.7 3.0
2019-Dec-14 03:15 8.7 3.0
2019-Dec-14 03:10 8.7 4.0
2019-Dec-14 03:05 8.7 4.0
2019-Dec-14 03:00 8.7 4.0
2019-Dec-14 02:55 8.7 4.0
2019-Dec-14 02:53 8.7 3.9
2019-Dec-14 02:50 8.7 4.0
2019-Dec-14 02:45 8.7 4.0
2019-Dec-14 02:35 8.7 4.0
2019-Dec-14 02:30 8.7 4.0
2019-Dec-14 02:15 010 3 6.1 4.0
2019-Dec-14 02:10 8.7 4.0
2019-Dec-14 02:05 250 3 8.7 5.0
2019-Dec-14 01:55 250 3 8.7 5.0
2019-Dec-14 01:53 260 2 8.7 5.6
2019-Dec-14 01:45 240 3 8.7 6.0
2019-Dec-14 01:40 230 3 8.7 6.0
2019-Dec-14 01:35 240 3 8.7 6.0
2019-Dec-14 01:30 230 3 8.7 6.0
2019-Dec-14 01:25 220 3 8.7 6.0
2019-Dec-14 01:20 220 3 8.7 6.0
2019-Dec-14 01:15 220 3 8.7 6.0
2019-Dec-14 01:05 210 4 8.7 7.0
2019-Dec-14 01:00 200 3 8.7 7.0
2019-Dec-14 00:55 210 3 8.7 7.0
2019-Dec-14 00:53 210 2 8.7 6.7
2019-Dec-14 00:50 210 3 8.7 7.0
2019-Dec-14 00:45 210 3 8.7 7.0
2019-Dec-14 00:40 210 3 8.7 7.0
2019-Dec-14 00:35 210 3 8.7 7.0
2019-Dec-14 00:30 210 3 8.7 7.0
2019-Dec-14 00:25 210 3 8.7 7.0
2019-Dec-14 00:15 190 4 8.7 7.0
2019-Dec-14 00:10 200 3 8.7 7.0
2019-Dec-14 00:05 200 4 8.7 7.0
2019-Dec-13 23:55 200 4 8.7 7.0
2019-Dec-13 23:53 200 2 8.7 6.7
2019-Dec-13 23:50 200 4 8.7 7.0
2019-Dec-13 23:40 200 3 8.7 7.0
2019-Dec-13 23:30 210 4 8.7 7.0
2019-Dec-13 23:25 200 3 8.7 7.0
2019-Dec-13 23:15 200 3 8.7 7.0
2019-Dec-13 23:05 200 3 8.7 7.0
2019-Dec-13 23:00 8.7 7.0
2019-Dec-13 22:55 8.7 7.0
2019-Dec-13 22:53 8.7 6.7
2019-Dec-13 22:45 190 3 8.7 7.0
2019-Dec-13 22:40 170 4 8.7 7.0
2019-Dec-13 22:35 180 3 8.7 7.0
2019-Dec-13 22:30 190 4 8.7 7.0
2019-Dec-13 22:25 190 4 8.7 8.0
2019-Dec-13 22:15 190 3 8.7 8.0
2019-Dec-13 22:10 200 4 8.7 8.0
2019-Dec-13 22:05 200 5 8.7 8.0
2019-Dec-13 21:55 180 5 8.7 8.0
2019-Dec-13 21:53 200 4 8.7 8.3
2019-Dec-13 21:50 180 5 8.7 8.0
2019-Dec-13 21:40 180 5 8.7 8.0
2019-Dec-13 21:30 190 5 8.7 8.0
2019-Dec-13 21:15 210 4 8.7 8.0
2019-Dec-13 21:10 190 4 8.7 8.0
2019-Dec-13 21:05 200 5 8.7 8.0
2019-Dec-13 20:55 170 7 8.7 8.0
2019-Dec-13 20:53 170 6 8.7 7.8
2019-Dec-13 20:50 170 5 8.7 8.0
2019-Dec-13 20:35 150 7 8.7 8.0
2019-Dec-13 20:25 160 6 8.7 8.0
2019-Dec-13 20:20 150 6 8.7 8.0
2019-Dec-13 20:10 160 8 8.7 8.0
2019-Dec-13 20:05 150 8 8.7 8.0
2019-Dec-13 19:55 160 8 8.7 8.0
2019-Dec-13 19:53 8.7 8.3
2019-Dec-13 19:50 170 6 8.7 8.0
2019-Dec-13 19:45 150 6 8.7 8.0
2019-Dec-13 19:37 150 6 8.7 8.3
2019-Dec-13 19:30 150 7 8.7 8.0
2019-Dec-13 19:10 170 6 8.7 8.0
2019-Dec-13 19:00 180 5 8.7 8.0
2019-Dec-13 18:55 170 4 8.7 8.0
2019-Dec-13 18:53 180 6 8.7 7.8
2019-Dec-13 18:50 180 5 8.7 8.0
2019-Dec-13 18:25 140 6 8.7 7.0
2019-Dec-13 18:20 140 6 8.7 7.0
2019-Dec-13 18:10 150 5 8.7 7.0
2019-Dec-13 18:09 160 5 8.7 7.2
2019-Dec-13 18:05 160 5 8.7 7.0
2019-Dec-13 17:55 160 7 8.7 7.0
2019-Dec-13 17:53 160 6 8.7 7.2
2019-Dec-13 17:50 180 6 8.7 7.0
2019-Dec-13 17:45 170 4 8.7 7.2
2019-Dec-13 17:35 170 5 8.7 7.0
2019-Dec-13 17:30 170 6 8.7 7.0
2019-Dec-13 17:20 170 4 8.7 7.0
2019-Dec-13 17:10 180 3 8.7 7.0
2019-Dec-13 17:05 8.7 7.0
2019-Dec-13 17:00 230 3 8.7 7.0
2019-Dec-13 16:55 200 3 8.7 7.0
2019-Dec-13 16:53 190 2 8.7 6.7
2019-Dec-13 16:50 200 4 8.7 7.0
2019-Dec-13 16:45 200 3 8.7 7.0
2019-Dec-13 16:40 190 4 8.7 7.0
2019-Dec-13 16:35 180 5 8.7 7.0
2019-Dec-13 16:30 190 4 8.7 7.0
2019-Dec-13 16:25 190 3 8.7 7.0
2019-Dec-13 16:20 190 3 8.7 6.0
2019-Dec-13 16:15 190 4 8.7 6.0
2019-Dec-13 16:10 180 4 8.7 6.0
2019-Dec-13 16:05 190 4 8.7 6.0
2019-Dec-13 16:00 170 5 8.7 6.0
2019-Dec-13 15:55 180 4 8.7 6.0 Light rain.
2019-Dec-13 15:53 190 5 8.7 6.7 Light rain.
2019-Dec-13 15:50 190 5 8.7 7.0 Light rain.
2019-Dec-13 15:45 190 4 8.7 6.0 Light rain.
2019-Dec-13 15:40 190 4 8.7 6.0 Light rain.
2019-Dec-13 15:30 190 3 8.7 7.0
2019-Dec-13 15:25 190 4 8.7 7.0
2019-Dec-13 15:20 200 4 8.7 6.0
2019-Dec-13 15:15 200 4 8.7 6.0
2019-Dec-13 15:10 200 3 8.7 6.0
2019-Dec-13 15:05 220 3 8.7 6.0
2019-Dec-13 15:00 180 4 8.7 6.0
2019-Dec-13 14:53 220 4 8.7 6.1
2019-Dec-13 14:50 210 4 8.7 7.0
2019-Dec-13 14:45 210 5 8.7 7.0
2019-Dec-13 14:40 200 5 8.7 7.0
2019-Dec-13 14:35 180 4 8.7 7.0
2019-Dec-13 14:30 170 5 8.7 7.0
2019-Dec-13 14:29 170 6 8.7 6.7
2019-Dec-13 14:25 170 4 8.7 6.0
2019-Dec-13 14:20 190 4 8.7 6.0
2019-Dec-13 14:15 200 3 8.7 6.0
2019-Dec-13 13:53 8.7 5.6
2019-Dec-13 13:50 8.7 6.0
2019-Dec-13 13:45 8.7 6.0
2019-Dec-13 13:40 8.7 6.0
2019-Dec-13 13:35 8.7 6.0
2019-Dec-13 13:30 7.0 5.0
2019-Dec-13 13:25 170 3 4.3 5.0 Mist.
2019-Dec-13 13:20 5.2 5.0 Mist.
2019-Dec-13 13:15 7.0 6.0
2019-Dec-13 13:10 7.0 6.0
2019-Dec-13 13:05 8.7 6.0
2019-Dec-13 13:01 170 2 8.7 6.1
2019-Dec-13 13:00 170 3 8.7 6.0